Madison, MN

2:16 AM CDT on April 30, 2017 (GMT -0500)
Madison-Lac Qui Parle County

Weather History for KDXX - November, 2012

Change the Weather History Date:

Wednesday, November 28, 2012

  Actual Average (KAQP) Record (KAQP)
Temperature  
Mean Temperature 27 °F -  
Max Temperature 42 °F 32 °F 50 °F (1998)
Min Temperature 12 °F 16 °F 5 °F (1996)
Degree Days  
Heating Degree Days 38    
Moisture  
Dew Point 20 °F    
Average Humidity 74    
Maximum Humidity 93    
Minimum Humidity 42    
Precipitation  
Precipitation 0.00 in - - ()
Sea Level Pressure  
Sea Level Pressure 30.18 in    
Wind  
Wind Speed 5 mph (South)    
Max Wind Speed 15 mph    
Max Gust Speed 20 mph    
Visibility 10 miles    
Events      
Averages and records for this station are not official NWS values.
T = Trace of Precipitation, MM = Missing Value Source: NWS Daily Summary

Daily Weather History Graph

Daily Weather History Graph

Search for Another Location

Airport or City:

Trip Planner

Search our weather history database for the weather conditions in past years. The results will help you decide how hot, cold, wet, or windy it might be!

Date:

Astronomy

Nov. 28, 2012 Rise Set
Actual Time 7:39 AM CST 4:45 PM CST
Civil Twilight 7:06 AM CST 5:18 PM CST
Nautical Twilight 6:30 AM CST 5:55 PM CST
Astronomical Twilight 5:55 AM CST 6:30 PM CST
Moon 5:01 PM CST (11/28) 7:38 AM CST (11/28)
Length of Visible Light 10h 11m
Length of Day
9h 05m
Full, 100% of the Moon is Illuminated
Nov 28
Full
Dec 6
Last Quarter
Dec 13
New
Dec 19
First Quarter
Dec 28
Full

Hourly Weather History & Observations

Time (CST) Temp. Windchill Dew Point Humidity Pressure Visibility Wind Dir Wind Speed Gust Speed Precip Events Conditions
12:14 AM 12.2 °F 4.3 °F 10.4 °F 92% 30.29 in 10.0 mi WNW 4.6 mph - N/A   Clear
12:33 AM 12.2 °F 6.1 °F 10.4 °F 92% 30.29 in 10.0 mi West 3.5 mph - N/A   Clear
12:54 AM 12.2 °F - 10.4 °F 92% 30.29 in 10.0 mi Calm Calm - N/A   Clear
1:14 AM 12.2 °F 6.1 °F 10.4 °F 92% 30.30 in 10.0 mi West 3.5 mph - N/A   Scattered Clouds
1:33 AM 15.8 °F - 12.2 °F 86% 30.30 in 10.0 mi Calm Calm - N/A   Overcast
1:54 AM 19.4 °F 14.3 °F 17.6 °F 93% 30.31 in 10.0 mi West 3.5 mph - N/A   Overcast
2:14 AM 19.4 °F 12.8 °F 17.6 °F 93% 30.30 in 10.0 mi West 4.6 mph - N/A   Overcast
2:33 AM 19.4 °F 12.8 °F 17.6 °F 93% 30.31 in 10.0 mi West 4.6 mph - N/A   Overcast
2:54 AM 21.2 °F 14.9 °F 17.6 °F 86% 30.31 in 10.0 mi West 4.6 mph - N/A   Overcast
3:14 AM 21.2 °F - 17.6 °F 86% 30.31 in 10.0 mi Calm Calm - N/A   Overcast
3:33 AM 21.2 °F 16.4 °F 19.4 °F 93% 30.31 in 10.0 mi WNW 3.5 mph - N/A   Overcast
3:54 AM 21.2 °F 14.9 °F 19.4 °F 93% 30.31 in 10.0 mi West 4.6 mph - N/A   Overcast
4:14 AM 21.2 °F 14.9 °F 19.4 °F 93% 30.31 in 10.0 mi West 4.6 mph - N/A   Overcast
4:33 AM 21.2 °F 14.9 °F 19.4 °F 93% 30.31 in 10.0 mi West 4.6 mph - N/A   Overcast
4:54 AM 21.2 °F - 19.4 °F 93% 30.31 in 10.0 mi Calm Calm - N/A   Overcast
5:14 AM 21.2 °F - 19.4 °F 93% 30.31 in 10.0 mi Calm Calm - N/A   Overcast
5:33 AM 21.2 °F - 19.4 °F 93% 30.31 in 7.0 mi Calm Calm - N/A   Overcast
5:54 AM 21.2 °F 16.4 °F 17.6 °F 86% 30.31 in 7.0 mi SW 3.5 mph - N/A   Overcast
6:13 AM 21.2 °F - 17.6 °F 86% 30.31 in 10.0 mi Calm Calm - N/A   Overcast
6:34 AM 21.2 °F - 17.6 °F 86% 30.31 in 10.0 mi Calm Calm - N/A   Overcast
6:54 AM 19.4 °F 14.3 °F 15.8 °F 86% 30.31 in 7.0 mi SSW 3.5 mph - N/A   Scattered Clouds
7:13 AM 15.8 °F 8.6 °F 12.2 °F 86% 30.31 in 10.0 mi SSW 4.6 mph - N/A   Clear
7:34 AM 14.0 °F 8.2 °F 12.2 °F 93% 30.31 in 10.0 mi SW 3.5 mph - N/A   Clear
7:54 AM 12.2 °F 6.1 °F 10.4 °F 92% 30.31 in 7.0 mi SSW 3.5 mph - N/A   Clear
8:13 AM 14.0 °F 8.2 °F 12.2 °F 93% 30.30 in 7.0 mi South 3.5 mph - N/A   Clear
8:34 AM 15.8 °F 10.2 °F 12.2 °F 86% 30.30 in 7.0 mi South 3.5 mph - N/A   Clear
8:54 AM 17.6 °F 10.7 °F 15.8 °F 93% 30.30 in 7.0 mi South 4.6 mph - N/A   Clear
9:13 AM 21.2 °F 14.9 °F 19.4 °F 93% 30.29 in 7.0 mi South 4.6 mph - N/A   Clear
9:34 AM 23.0 °F 14.7 °F 19.4 °F 86% 30.28 in 7.0 mi South 6.9 mph - N/A   Clear
9:54 AM 26.6 °F 18.2 °F 21.2 °F 80% 30.28 in 10.0 mi SSE 8.1 mph - N/A   Clear
10:13 AM 26.6 °F 16.8 °F 23.0 °F 86% 30.28 in 10.0 mi South 10.4 mph - N/A   Clear
10:33 AM 28.4 °F 18.5 °F 23.0 °F 80% 30.27 in 10.0 mi South 11.5 mph - N/A   Clear
10:53 AM 32.0 °F 22.5 °F 24.8 °F 75% 30.26 in 10.0 mi South 12.7 mph - N/A   Clear
11:14 AM 33.8 °F 25.3 °F 24.8 °F 70% 30.26 in 10.0 mi South 11.5 mph - N/A   Clear
11:33 AM 33.8 °F 26.4 °F 24.8 °F 70% 30.24 in 10.0 mi South 9.2 mph - N/A   Clear
11:53 AM 35.6 °F 27.5 °F 26.6 °F 70% 30.22 in 10.0 mi South 11.5 mph - N/A   Clear
12:14 PM 37.4 °F 30.3 °F 24.8 °F 60% 30.21 in 10.0 mi SSW 10.4 mph - N/A   Clear
12:33 PM 37.4 °F 29.3 °F 24.8 °F 60% 30.19 in 10.0 mi South 12.7 mph - N/A   Clear
12:53 PM 37.4 °F 29.3 °F 24.8 °F 60% 30.18 in 10.0 mi South 12.7 mph - N/A   Clear
1:14 PM 39.2 °F 33.0 °F 24.8 °F 56% 30.17 in 10.0 mi South 9.2 mph - N/A   Clear
1:33 PM 42.8 °F 36.2 °F 24.8 °F 49% 30.14 in 10.0 mi South 12.7 mph - N/A   Clear
1:53 PM 42.8 °F 36.6 °F 24.8 °F 49% 30.12 in 10.0 mi South 11.5 mph 19.6 mph N/A   Clear
2:14 PM 42.8 °F 35.8 °F 21.2 °F 42% 30.11 in 10.0 mi SSW 13.8 mph 18.4 mph N/A   Clear
2:34 PM 42.8 °F 35.4 °F 21.2 °F 42% 30.09 in 10.0 mi South 15.0 mph 19.6 mph N/A   Clear
2:53 PM 42.8 °F 36.2 °F 21.2 °F 42% 30.09 in 10.0 mi South 12.7 mph - N/A   Clear
3:14 PM 41.0 °F 34.7 °F 21.2 °F 45% 30.08 in 10.0 mi South 10.4 mph - N/A   Clear
3:34 PM 41.0 °F 34.7 °F 21.2 °F 45% 30.07 in 10.0 mi South 10.4 mph - N/A   Clear
3:53 PM 41.0 °F 36.4 °F 21.2 °F 45% 30.06 in 10.0 mi South 6.9 mph - N/A   Clear
4:14 PM 41.0 °F 35.2 °F 21.2 °F 45% 30.06 in 10.0 mi South 9.2 mph - N/A   Clear
4:34 PM 37.4 °F 32.1 °F 21.2 °F 52% 30.06 in 10.0 mi SSE 6.9 mph - N/A   Clear
4:53 PM 35.6 °F 32.8 °F 21.2 °F 56% 30.06 in 10.0 mi SSE 3.5 mph - N/A   Clear
5:14 PM 35.6 °F 30.7 °F 21.2 °F 56% 30.07 in 10.0 mi South 5.8 mph - N/A   Clear
5:34 PM 33.8 °F 27.7 °F 21.2 °F 60% 30.06 in 10.0 mi South 6.9 mph - N/A   Clear
5:53 PM 33.8 °F 27.7 °F 21.2 °F 60% 30.07 in 10.0 mi South 6.9 mph - N/A   Clear
6:14 PM 33.8 °F 27.7 °F 21.2 °F 60% 30.06 in 10.0 mi South 6.9 mph - N/A   Clear
6:34 PM 33.8 °F 29.6 °F 21.2 °F 60% 30.05 in 10.0 mi SSE 4.6 mph - N/A   Clear
6:53 PM 32.0 °F 26.4 °F 21.2 °F 64% 30.04 in 10.0 mi SE 5.8 mph - N/A   Clear
7:14 PM 33.8 °F 27.0 °F 21.2 °F 60% 30.04 in 10.0 mi SSE 8.1 mph - N/A   Clear
7:34 PM 33.8 °F 29.6 °F 21.2 °F 60% 30.05 in 10.0 mi SE 4.6 mph - N/A   Clear
7:53 PM 32.0 °F 24.2 °F 21.2 °F 64% 30.04 in 10.0 mi SE 9.2 mph - N/A   Clear
8:14 PM 32.0 °F 24.8 °F 23.0 °F 69% 30.04 in 10.0 mi SE 8.1 mph - N/A   Clear
8:34 PM 30.2 °F 22.6 °F 21.2 °F 69% 30.04 in 10.0 mi SE 8.1 mph - N/A   Clear
8:53 PM 30.2 °F 23.4 °F 21.2 °F 69% 30.03 in 10.0 mi SE 6.9 mph - N/A   Clear
9:14 PM 28.4 °F 20.4 °F 21.2 °F 74% 30.02 in 10.0 mi SSE 8.1 mph - N/A   Clear
9:34 PM 26.6 °F 20.0 °F 21.2 °F 80% 30.03 in 10.0 mi SE 5.8 mph - N/A   Clear
9:53 PM 26.6 °F 21.2 °F 21.2 °F 80% 30.03 in 10.0 mi SE 4.6 mph - N/A   Clear
10:14 PM 28.4 °F 22.2 °F 21.2 °F 74% 30.02 in 10.0 mi SE 5.8 mph - N/A   Clear
10:34 PM 26.6 °F 20.0 °F 21.2 °F 80% 30.04 in 10.0 mi SE 5.8 mph - N/A   Clear
10:53 PM 24.8 °F 19.1 °F 19.4 °F 80% 30.04 in 10.0 mi ESE 4.6 mph - N/A   Clear
11:14 PM 24.8 °F - 19.4 °F 80% 30.03 in 10.0 mi Calm Calm - N/A   Clear
11:33 PM 24.8 °F - 19.4 °F 80% 30.03 in 10.0 mi Calm Calm - N/A   Clear
11:54 PM 24.8 °F 20.5 °F 19.4 °F 80% 30.02 in 10.0 mi SSE 3.5 mph - N/A   Clear